AFV1 FQ49-FQIN

Flight info

Callsign AFV1
Flight time 1h 24m
Altitude 3000
Route OKNOK
Aircraft C208/L-SDFGR/C

Departure

Time 2026-04-29 09:44
Airport Vila Franca do Save Airport (FQ49)

Arrival

Time 2026-04-29 11:09
Airport Inhambane Airport (FQIN)
Time Latitude Longitude Altitude Speed Heading
2026-04-29 09:33 -21.16255 34.56080 277 ft 0 kts 158°
2026-04-29 09:40 -21.16298 34.56099 277 ft 6 kts 161°
2026-04-29 09:40 -21.16301 34.56099 277 ft 0 kts 160°
2026-04-29 09:40 -21.16301 34.56100 277 ft 0 kts 160°
2026-04-29 09:41 -21.16326 34.56073 277 ft 9 kts 287°
2026-04-29 09:42 -21.16269 34.56022 277 ft 9 kts 340°
2026-04-29 09:42 -21.16210 34.55999 277 ft 10 kts 340°
2026-04-29 09:42 -21.16164 34.55982 277 ft 6 kts 340°
2026-04-29 09:42 -21.16067 34.55945 277 ft 19 kts 341°
2026-04-29 09:43 -21.16046 34.55935 277 ft 3 kts 330°
2026-04-29 09:43 -21.16030 34.55957 277 ft 3 kts 118°
2026-04-29 09:43 -21.16069 34.55949 277 ft 5 kts 182°
2026-04-29 09:43 -21.16080 34.55952 277 ft 1 kts 154°
2026-04-29 09:44 -21.16165 34.55991 277 ft 48 kts 160°
2026-04-29 09:44 -21.16681 34.56190 283 ft 99 kts 159°
2026-04-29 09:44 -21.17309 34.56425 563 ft 98 kts 161°
2026-04-29 09:44 -21.17949 34.56642 863 ft 95 kts 160°
2026-04-29 09:45 -21.18578 34.56872 1156 ft 94 kts 161°
2026-04-29 09:45 -21.19217 34.57052 1455 ft 95 kts 167°
2026-04-29 09:45 -21.19881 34.57142 1731 ft 95 kts 170°
2026-04-29 09:45 -21.20525 34.57251 2042 ft 93 kts 168°
2026-04-29 09:46 -21.21145 34.57360 2387 ft 90 kts 169°
2026-04-29 09:46 -21.21769 34.57478 2701 ft 89 kts 166°
2026-04-29 09:46 -21.22342 34.57680 3032 ft 87 kts 153°
2026-04-29 09:46 -21.22857 34.58049 3305 ft 90 kts 139°
2026-04-29 09:47 -21.23283 34.58531 3633 ft 88 kts 135°
2026-04-29 09:47 -21.23771 34.58949 3908 ft 91 kts 147°
2026-04-29 09:47 -21.24333 34.59253 4229 ft 89 kts 154°
2026-04-29 09:47 -21.24910 34.59520 4513 ft 92 kts 157°
2026-04-29 09:48 -21.25522 34.59730 4818 ft 92 kts 163°
2026-04-29 09:48 -21.26156 34.59846 5107 ft 94 kts 172°
2026-04-29 09:48 -21.26813 34.59847 5401 ft 95 kts 180°
2026-04-29 09:48 -21.27483 34.59802 5682 ft 96 kts 173°
2026-04-29 09:49 -21.28136 34.59938 5974 ft 95 kts 162°
2026-04-29 09:49 -21.28756 34.60158 6276 ft 94 kts 158°
2026-04-29 09:49 -21.29369 34.60424 6558 ft 95 kts 156°
2026-04-29 09:49 -21.29990 34.60680 6850 ft 96 kts 159°
2026-04-29 09:50 -21.30633 34.60914 7110 ft 99 kts 159°
2026-04-29 09:50 -21.31286 34.61113 7416 ft 97 kts 165°
2026-04-29 09:50 -21.31966 34.61230 7681 ft 100 kts 172°
2026-04-29 09:50 -21.32664 34.61250 7968 ft 101 kts 178°
2026-04-29 09:51 -21.33367 34.61175 8248 ft 103 kts 185°
2026-04-29 09:51 -21.34075 34.61002 8511 ft 106 kts 192°
2026-04-29 09:51 -21.34788 34.60739 8756 ft 114 kts 197°
2026-04-29 09:51 -21.35534 34.60449 9065 ft 114 kts 193°
2026-04-29 09:52 -21.36355 34.60207 9172 ft 131 kts 191°
2026-04-29 09:52 -21.37260 34.59961 9330 ft 137 kts 191°
2026-04-29 09:52 -21.38222 34.59708 9383 ft 147 kts 190°
2026-04-29 09:52 -21.39232 34.59505 9560 ft 145 kts 186°
2026-04-29 09:53 -21.40216 34.59377 9766 ft 143 kts 183°
2026-04-29 09:53 -21.41222 34.59306 9868 ft 147 kts 180°
2026-04-29 09:53 -21.42265 34.59282 9922 ft 154 kts 179°
2026-04-29 09:53 -21.43369 34.59276 9864 ft 165 kts 178°
2026-04-29 09:54 -21.44552 34.59278 9801 ft 171 kts 178°
2026-04-29 09:54 -21.45710 34.59370 9941 ft 164 kts 167°
2026-04-29 09:54 -21.46792 34.59762 9955 ft 166 kts 154°
2026-04-29 09:54 -21.47789 34.60406 9979 ft 167 kts 143°
2026-04-29 09:55 -21.48655 34.61214 10065 ft 164 kts 135°
2026-04-29 09:55 -21.49400 34.62140 10115 ft 165 kts 128°
2026-04-29 09:55 -21.50071 34.63144 10158 ft 166 kts 125°
2026-04-29 09:55 -21.50717 34.64192 10104 ft 171 kts 123°
2026-04-29 09:56 -21.51385 34.65262 10062 ft 172 kts 126°
2026-04-29 09:56 -21.52090 34.66288 10118 ft 169 kts 128°
2026-04-29 09:56 -21.52816 34.67280 10084 ft 172 kts 128°
2026-04-29 09:56 -21.53583 34.68338 9776 ft 185 kts 128°
2026-04-29 09:57 -21.54373 34.69444 9654 ft 181 kts 128°
2026-04-29 09:57 -21.55118 34.70501 9633 ft 175 kts 127°
2026-04-29 09:57 -21.55854 34.71557 9462 ft 179 kts 127°
2026-04-29 09:57 -21.56601 34.72634 9296 ft 180 kts 127°
2026-04-29 09:58 -21.57356 34.73692 9212 ft 177 kts 129°
2026-04-29 09:58 -21.58140 34.74694 9116 ft 176 kts 131°
2026-04-29 09:58 -21.58970 34.75664 8992 ft 176 kts 134°
2026-04-29 09:58 -21.59834 34.76595 8882 ft 176 kts 136°
2026-04-29 09:59 -21.60719 34.77497 8785 ft 175 kts 137°
2026-04-29 09:59 -21.61617 34.78382 8683 ft 175 kts 138°
2026-04-29 09:59 -21.62509 34.79264 8582 ft 175 kts 137°
2026-04-29 09:59 -21.63393 34.80161 8486 ft 174 kts 137°
2026-04-29 10:00 -21.64260 34.81064 8410 ft 173 kts 136°
2026-04-29 10:00 -21.65116 34.81986 8320 ft 172 kts 135°
2026-04-29 10:00 -21.65952 34.82913 8215 ft 173 kts 134°
2026-04-29 10:00 -21.66778 34.83847 8129 ft 172 kts 134°
2026-04-29 10:01 -21.67319 34.84469 8077 ft 172 kts 134°
2026-04-29 10:01 -21.68131 34.85414 7992 ft 172 kts 133°
2026-04-29 10:01 -21.69177 34.86690 7882 ft 172 kts 131°
2026-04-29 10:01 -21.69931 34.87678 7803 ft 171 kts 130°
2026-04-29 10:02 -21.70420 34.88346 7750 ft 171 kts 129°
2026-04-29 10:02 -21.71378 34.89709 7645 ft 171 kts 128°
2026-04-29 10:02 -21.72075 34.90745 7568 ft 171 kts 127°
2026-04-29 10:02 -21.72526 34.91441 7521 ft 171 kts 126°
2026-04-29 10:03 -21.73176 34.92502 7461 ft 170 kts 124°
2026-04-29 10:03 -21.73794 34.93586 7411 ft 169 kts 123°
2026-04-29 10:03 -21.74668 34.94971 7303 ft 169 kts 128°
2026-04-29 10:03 -21.75147 34.95653 7254 ft 169 kts 129°
2026-04-29 10:04 -21.75838 34.96672 7190 ft 168 kts 126°
2026-04-29 10:04 -21.76465 34.97735 7118 ft 169 kts 123°
2026-04-29 10:04 -21.77045 34.98838 7055 ft 169 kts 119°
2026-04-29 10:04 -21.77696 35.00357 6967 ft 169 kts 115°
2026-04-29 10:05 -21.77987 35.01160 6923 ft 170 kts 112°
2026-04-29 10:05 -21.78404 35.02344 6864 ft 169 kts 114°
2026-04-29 10:05 -21.78966 35.03457 6807 ft 169 kts 127°
2026-04-29 10:05 -21.79722 35.04393 6783 ft 168 kts 136°
2026-04-29 10:06 -21.80594 35.05207 6786 ft 165 kts 141°
2026-04-29 10:06 -21.81478 35.06006 6737 ft 166 kts 140°
2026-04-29 10:06 -21.82351 35.06827 6693 ft 167 kts 139°
2026-04-29 10:06 -21.83234 35.07628 6671 ft 167 kts 142°
2026-04-29 10:07 -21.84128 35.08429 6648 ft 168 kts 138°
2026-04-29 10:07 -21.84945 35.09358 6457 ft 176 kts 132°
2026-04-29 10:07 -21.85728 35.10409 6152 ft 183 kts 129°
2026-04-29 10:07 -21.86485 35.11491 6051 ft 177 kts 128°
2026-04-29 10:08 -21.87201 35.12555 5925 ft 177 kts 127°
2026-04-29 10:08 -21.87898 35.13691 5573 ft 185 kts 124°
2026-04-29 10:08 -21.88574 35.14892 5359 ft 183 kts 122°
2026-04-29 10:08 -21.89178 35.16055 5240 ft 178 kts 121°
2026-04-29 10:09 -21.89744 35.17194 5011 ft 177 kts 120°
2026-04-29 10:09 -21.90326 35.18385 4679 ft 180 kts 120°
2026-04-29 10:09 -21.90910 35.19570 4411 ft 177 kts 120°
2026-04-29 10:09 -21.91462 35.20722 4131 ft 176 kts 118°
2026-04-29 10:10 -21.92020 35.21893 3779 ft 175 kts 120°
2026-04-29 10:10 -21.92624 35.23045 3399 ft 173 kts 122°
2026-04-29 10:10 -21.93235 35.24148 3007 ft 171 kts 122°
2026-04-29 10:10 -21.93834 35.25261 2539 ft 172 kts 121°
2026-04-29 10:11 -21.94381 35.26372 2235 ft 165 kts 121°
2026-04-29 10:11 -21.94980 35.27406 1953 ft 154 kts 126°
2026-04-29 10:11 -21.95582 35.28313 1601 ft 147 kts 129°
2026-04-29 10:11 -21.96194 35.29160 1303 ft 138 kts 138°
2026-04-29 10:12 -21.96972 35.29654 1209 ft 117 kts 156°
2026-04-29 10:12 -21.97655 35.29971 1135 ft 100 kts 160°
2026-04-29 10:12 -21.98298 35.30196 837 ft 98 kts 164°
2026-04-29 10:12 -21.98948 35.30405 547 ft 94 kts 165°
2026-04-29 10:13 -21.99541 35.30650 288 ft 93 kts 157°
2026-04-29 10:13 -22.00159 35.30955 201 ft 102 kts 160°
2026-04-29 10:13 -22.00798 35.31257 129 ft 95 kts 159°
2026-04-29 10:13 -22.01351 35.31518 60 ft 79 kts 159°
2026-04-29 10:14 -22.01764 35.31714 51 ft 47 kts 156°
2026-04-29 10:14 -22.01961 35.31810 51 ft 17 kts 157°
2026-04-29 10:14 -22.02075 35.31863 51 ft 15 kts 155°
2026-04-29 10:14 -22.02145 35.31896 51 ft 12 kts 156°
2026-04-29 10:15 -22.02225 35.31921 51 ft 9 kts 187°
2026-04-29 10:15 -22.02262 35.31938 51 ft 5 kts 74°
2026-04-29 10:15 -22.02178 35.31914 51 ft 23 kts 334°
2026-04-29 10:15 -22.02023 35.31827 51 ft 21 kts 330°
2026-04-29 10:16 -22.01893 35.31780 51 ft 26 kts 333°
2026-04-29 10:16 -22.01798 35.31731 51 ft 17 kts 335°
2026-04-29 10:16 -22.01644 35.31657 51 ft 17 kts 335°
2026-04-29 10:16 -22.01569 35.31619 51 ft 8 kts 339°
2026-04-29 10:17 -22.01515 35.31668 51 ft 20 kts 68°
2026-04-29 10:17 -22.01481 35.31755 51 ft 1 kts 83°
2026-04-29 10:17 -22.01492 35.31790 51 ft 7 kts 77°
2026-04-29 10:17 -22.01475 35.31824 51 ft 5 kts 71°
2026-04-29 10:18 -22.01466 35.31849 51 ft 0 kts 68°
2026-04-29 10:21 -22.01466 35.31850 51 ft 1 kts 68°
2026-04-29 10:21 -22.01465 35.31851 51 ft 0 kts 68°
2026-04-29 10:21 -22.01462 35.31855 51 ft 4 kts 43°
2026-04-29 10:22 -22.01461 35.31790 51 ft 26 kts 240°
2026-04-29 10:22 -22.01526 35.31638 51 ft 12 kts 249°
2026-04-29 10:22 -22.01532 35.31622 51 ft 1 kts 249°
2026-04-29 10:22 -22.01549 35.31607 51 ft 3 kts 167°
2026-04-29 10:23 -22.01576 35.31621 51 ft 26 kts 156°
2026-04-29 10:23 -22.01977 35.31820 51 ft 91 kts 158°
2026-04-29 10:23 -22.02599 35.32109 263 ft 94 kts 158°
2026-04-29 10:23 -22.03175 35.32396 554 ft 91 kts 155°
2026-04-29 10:24 -22.03747 35.32675 844 ft 89 kts 161°
2026-04-29 10:24 -22.04376 35.32814 1061 ft 99 kts 171°
2026-04-29 10:24 -22.05065 35.32881 1367 ft 96 kts 174°
2026-04-29 10:24 -22.05763 35.32935 1607 ft 97 kts 173°
2026-04-29 10:25 -22.06420 35.32982 1949 ft 99 kts 173°
2026-04-29 10:25 -22.07124 35.33048 2266 ft 100 kts 169°
2026-04-29 10:25 -22.07773 35.33217 2660 ft 95 kts 159°
2026-04-29 10:25 -22.08405 35.33480 2968 ft 98 kts 155°
2026-04-29 10:26 -22.09007 35.33777 3339 ft 94 kts 151°
2026-04-29 10:26 -22.09593 35.34151 3633 ft 100 kts 146°
2026-04-29 10:26 -22.10140 35.34591 4022 ft 96 kts 141°
2026-04-29 10:26 -22.10644 35.35093 4326 ft 102 kts 136°
2026-04-29 10:27 -22.11548 35.36262 5025 ft 104 kts 129°
2026-04-29 10:27 -22.12112 35.36749 5311 ft 107 kts 155°
2026-04-29 10:27 -22.12822 35.36954 5713 ft 103 kts 169°
2026-04-29 10:28 -22.13540 35.37014 6022 ft 108 kts 178°
2026-04-29 10:28 -22.14286 35.36946 6377 ft 107 kts 185°
2026-04-29 10:28 -22.15025 35.36792 6699 ft 110 kts 190°
2026-04-29 10:28 -22.15767 35.36564 7034 ft 111 kts 194°
2026-04-29 10:29 -22.16515 35.36303 7369 ft 112 kts 195°
2026-04-29 10:29 -22.17285 35.36161 7668 ft 114 kts 180°
2026-04-29 10:29 -22.18093 35.36175 7930 ft 119 kts 178°
2026-04-29 10:29 -22.18906 35.36198 8290 ft 116 kts 178°
2026-04-29 10:30 -22.19729 35.36220 8564 ft 121 kts 179°
2026-04-29 10:30 -22.20569 35.36222 8888 ft 120 kts 179°
2026-04-29 10:30 -22.21408 35.36250 9176 ft 122 kts 177°
2026-04-29 10:30 -22.22263 35.36310 9460 ft 124 kts 175°
2026-04-29 10:31 -22.23122 35.36406 9753 ft 125 kts 174°
2026-04-29 10:31 -22.23992 35.36516 10022 ft 127 kts 176°
2026-04-29 10:31 -22.24880 35.36555 10300 ft 128 kts 181°
2026-04-29 10:31 -22.25773 35.36521 10566 ft 129 kts 185°
2026-04-29 10:32 -22.26688 35.36433 10639 ft 144 kts 186°
2026-04-29 10:32 -22.27861 35.36317 10011 ft 187 kts 185°
2026-04-29 10:32 -22.29217 35.36223 9566 ft 199 kts 182°
2026-04-29 10:32 -22.30593 35.36200 9351 ft 196 kts 180°
2026-04-29 10:33 -22.31943 35.36160 9245 ft 188 kts 182°
2026-04-29 10:33 -22.33205 35.36080 9304 ft 178 kts 184°
2026-04-29 10:33 -22.34434 35.35969 9217 ft 179 kts 185°
2026-04-29 10:33 -22.35690 35.35828 9056 ft 182 kts 186°
2026-04-29 10:34 -22.36920 35.35668 9000 ft 179 kts 187°
2026-04-29 10:34 -22.37751 35.35555 8963 ft 178 kts 186°
2026-04-29 10:34 -22.39385 35.35375 8835 ft 178 kts 184°
2026-04-29 10:34 -22.40583 35.35273 8940 ft 170 kts 184°
2026-04-29 10:35 -22.41386 35.35216 8903 ft 172 kts 183°
2026-04-29 10:35 -22.42537 35.35146 9036 ft 164 kts 182°
2026-04-29 10:35 -22.43668 35.35091 9124 ft 163 kts 182°
2026-04-29 10:35 -22.44820 35.35047 9105 ft 168 kts 181°
2026-04-29 10:36 -22.45982 35.35012 9156 ft 166 kts 181°
2026-04-29 10:36 -22.47133 35.34984 9215 ft 166 kts 181°
2026-04-29 10:36 -22.48295 35.34963 9224 ft 168 kts 181°
2026-04-29 10:36 -22.49463 35.34946 9252 ft 168 kts 180°
2026-04-29 10:37 -22.50644 35.34935 9209 ft 172 kts 180°
2026-04-29 10:37 -22.51841 35.34941 9211 ft 171 kts 179°
2026-04-29 10:37 -22.53024 35.34969 9236 ft 170 kts 178°
2026-04-29 10:37 -22.54218 35.35017 9215 ft 172 kts 178°
2026-04-29 10:38 -22.55405 35.35078 9237 ft 170 kts 177°
2026-04-29 10:38 -22.56594 35.35151 9234 ft 171 kts 176°
2026-04-29 10:38 -22.57783 35.35234 9231 ft 171 kts 176°
2026-04-29 10:38 -22.58971 35.35325 9245 ft 171 kts 176°
2026-04-29 10:39 -22.60161 35.35423 9242 ft 172 kts 175°
2026-04-29 10:39 -22.61353 35.35537 9247 ft 172 kts 175°
2026-04-29 10:39 -22.62539 35.35665 9256 ft 171 kts 174°
2026-04-29 10:39 -22.63725 35.35816 9261 ft 172 kts 173°
2026-04-29 10:40 -22.64907 35.35995 9267 ft 171 kts 172°
2026-04-29 10:40 -22.66084 35.36196 9272 ft 172 kts 171°
2026-04-29 10:40 -22.67263 35.36420 9276 ft 172 kts 170°
2026-04-29 10:40 -22.68433 35.36667 9282 ft 172 kts 169°
2026-04-29 10:41 -22.69592 35.36910 9286 ft 172 kts 170°
2026-04-29 10:41 -22.70772 35.37098 9288 ft 172 kts 174°
2026-04-29 10:41 -22.71964 35.37211 9294 ft 172 kts 176°
2026-04-29 10:41 -22.73156 35.37270 9299 ft 171 kts 178°
2026-04-29 10:42 -22.74349 35.37285 9303 ft 172 kts 180°
2026-04-29 10:42 -22.75543 35.37265 9308 ft 171 kts 181°
2026-04-29 10:42 -22.76734 35.37218 9313 ft 171 kts 182°
2026-04-29 10:42 -22.77927 35.37148 9317 ft 171 kts 184°
2026-04-29 10:43 -22.79117 35.37061 9325 ft 171 kts 184°
2026-04-29 10:43 -22.80296 35.36960 9347 ft 170 kts 185°
2026-04-29 10:43 -22.81468 35.36849 9327 ft 172 kts 185°
2026-04-29 10:43 -22.82661 35.36727 9327 ft 172 kts 185°
2026-04-29 10:44 -22.83846 35.36599 9346 ft 171 kts 186°
2026-04-29 10:44 -22.85032 35.36466 9347 ft 171 kts 186°
2026-04-29 10:44 -22.86217 35.36328 9347 ft 172 kts 186°
2026-04-29 10:44 -22.87422 35.36184 9356 ft 171 kts 186°
2026-04-29 10:45 -22.88591 35.36042 9362 ft 171 kts 186°
2026-04-29 10:45 -22.89790 35.35894 9365 ft 172 kts 186°
2026-04-29 10:45 -22.90975 35.35747 9371 ft 171 kts 187°
2026-04-29 10:45 -22.92163 35.35598 9376 ft 171 kts 187°
2026-04-29 10:46 -22.93352 35.35456 9383 ft 172 kts 186°
2026-04-29 10:46 -22.94538 35.35348 9394 ft 171 kts 184°
2026-04-29 10:46 -22.95732 35.35268 9399 ft 172 kts 183°
2026-04-29 10:46 -22.96923 35.35213 9401 ft 172 kts 182°
2026-04-29 10:47 -22.98133 35.35169 9407 ft 172 kts 182°
2026-04-29 10:47 -22.99327 35.35116 9413 ft 172 kts 183°
2026-04-29 10:47 -23.00521 35.35052 9417 ft 172 kts 183°
2026-04-29 10:47 -23.01712 35.34981 9422 ft 172 kts 184°
2026-04-29 10:48 -23.02903 35.34903 9427 ft 172 kts 184°
2026-04-29 10:48 -23.04093 35.34821 9432 ft 172 kts 184°
2026-04-29 10:48 -23.05288 35.34734 9436 ft 172 kts 184°
2026-04-29 10:48 -23.06479 35.34645 9444 ft 172 kts 184°
2026-04-29 10:49 -23.07673 35.34555 9438 ft 173 kts 184°
2026-04-29 10:49 -23.08873 35.34463 9429 ft 173 kts 184°
2026-04-29 10:49 -23.10074 35.34373 9445 ft 172 kts 184°
2026-04-29 10:49 -23.11268 35.34291 9453 ft 173 kts 184°
2026-04-29 10:50 -23.12454 35.34214 9452 ft 173 kts 184°
2026-04-29 10:50 -23.13655 35.34140 9459 ft 173 kts 184°
2026-04-29 10:50 -23.14855 35.34070 9466 ft 173 kts 184°
2026-04-29 10:50 -23.16057 35.34016 9467 ft 173 kts 182°
2026-04-29 10:51 -23.17257 35.34013 9481 ft 172 kts 180°
2026-04-29 10:51 -23.18450 35.34058 9495 ft 172 kts 178°
2026-04-29 10:51 -23.19648 35.34141 9490 ft 172 kts 176°
2026-04-29 10:51 -23.20842 35.34254 9491 ft 173 kts 175°
2026-04-29 10:52 -23.22029 35.34394 9502 ft 172 kts 174°
2026-04-29 10:52 -23.23225 35.34557 9505 ft 173 kts 173°
2026-04-29 10:52 -23.24416 35.34740 9506 ft 173 kts 172°
2026-04-29 10:52 -23.25598 35.34971 9506 ft 173 kts 169°
2026-04-29 10:53 -23.26772 35.35265 9513 ft 173 kts 167°
2026-04-29 10:53 -23.27935 35.35608 9520 ft 173 kts 165°
2026-04-29 10:53 -23.29087 35.35991 9522 ft 173 kts 163°
2026-04-29 10:53 -23.30216 35.36401 9525 ft 174 kts 162°
2026-04-29 10:54 -23.31349 35.36866 9529 ft 174 kts 160°
2026-04-29 10:54 -23.32463 35.37371 9533 ft 174 kts 158°
2026-04-29 10:54 -23.33569 35.37913 9539 ft 174 kts 156°
2026-04-29 10:54 -23.34664 35.38482 9544 ft 174 kts 155°
2026-04-29 10:55 -23.35750 35.39072 9548 ft 174 kts 154°
2026-04-29 10:55 -23.36837 35.39653 9546 ft 174 kts 161°
2026-04-29 10:55 -23.38032 35.39924 9471 ft 176 kts 174°
2026-04-29 10:55 -23.39238 35.40053 9532 ft 172 kts 175°
2026-04-29 10:56 -23.40422 35.40181 9562 ft 172 kts 175°
2026-04-29 10:56 -23.41618 35.40332 9527 ft 174 kts 174°
2026-04-29 10:56 -23.42816 35.40504 9541 ft 173 kts 173°
2026-04-29 10:56 -23.44000 35.40695 9539 ft 168 kts 172°
2026-04-29 10:57 -23.45119 35.40913 9084 ft 166 kts 170°
2026-04-29 10:57 -23.46320 35.41169 8295 ft 182 kts 169°
2026-04-29 10:57 -23.47560 35.41444 7608 ft 185 kts 168°
2026-04-29 10:57 -23.48817 35.41728 6977 ft 183 kts 167°
2026-04-29 10:58 -23.50033 35.42009 6465 ft 175 kts 167°
2026-04-29 10:58 -23.51223 35.42255 5874 ft 174 kts 168°
2026-04-29 10:58 -23.52415 35.42475 5272 ft 172 kts 169°
2026-04-29 10:58 -23.53582 35.42671 4745 ft 167 kts 170°
2026-04-29 10:59 -23.54742 35.42803 4190 ft 164 kts 173°
2026-04-29 10:59 -23.55879 35.42867 3625 ft 163 kts 174°
2026-04-29 10:59 -23.57002 35.42897 3078 ft 160 kts 175°
2026-04-29 10:59 -23.58098 35.42901 2570 ft 156 kts 176°
2026-04-29 11:00 -23.59130 35.42881 2330 ft 138 kts 177°
2026-04-29 11:00 -23.60017 35.42841 2219 ft 122 kts 178°
2026-04-29 11:00 -23.60805 35.42744 2210 ft 103 kts 182°
2026-04-29 11:00 -23.61501 35.42618 2048 ft 100 kts 182°
2026-04-29 11:01 -23.62171 35.42483 1909 ft 97 kts 184°
2026-04-29 11:01 -23.62809 35.42331 1808 ft 91 kts 185°
2026-04-29 11:01 -23.63426 35.42154 1648 ft 91 kts 188°
2026-04-29 11:01 -23.64016 35.41941 1531 ft 88 kts 189°
2026-04-29 11:02 -23.64587 35.41743 1406 ft 85 kts 191°
2026-04-29 11:02 -23.65138 35.41520 1328 ft 90 kts 192°
2026-04-29 11:02 -23.65779 35.41287 1496 ft 97 kts 189°
2026-04-29 11:02 -23.66427 35.41112 1364 ft 96 kts 184°
2026-04-29 11:03 -23.67061 35.40962 1388 ft 95 kts 185°
2026-04-29 11:03 -23.67734 35.40796 1346 ft 105 kts 185°
2026-04-29 11:03 -23.68438 35.40619 1452 ft 103 kts 187°
2026-04-29 11:03 -23.69155 35.40441 1565 ft 111 kts 186°
2026-04-29 11:04 -23.69956 35.40264 1772 ft 118 kts 184°
2026-04-29 11:04 -23.70626 35.40114 2426 ft 92 kts 187°
2026-04-29 11:04 -23.71324 35.39922 2566 ft 114 kts 187°
2026-04-29 11:04 -23.72127 35.39706 2775 ft 125 kts 188°
2026-04-29 11:05 -23.73054 35.39472 2655 ft 145 kts 188°
2026-04-29 11:05 -23.74073 35.39223 2613 ft 152 kts 188°
2026-04-29 11:05 -23.75086 35.38982 2740 ft 147 kts 187°
2026-04-29 11:05 -23.76074 35.38752 2778 ft 149 kts 187°
2026-04-29 11:06 -23.77107 35.38517 2802 ft 150 kts 187°
2026-04-29 11:06 -23.78088 35.38297 2771 ft 142 kts 186°
2026-04-29 11:06 -23.79061 35.38109 2523 ft 140 kts 185°
2026-04-29 11:06 -23.79954 35.37932 2270 ft 124 kts 185°
2026-04-29 11:07 -23.80778 35.37819 1754 ft 120 kts 180°
2026-04-29 11:07 -23.81585 35.37916 1331 ft 107 kts 158°
2026-04-29 11:07 -23.82188 35.38331 984 ft 100 kts 145°
2026-04-29 11:07 -23.82792 35.38785 787 ft 112 kts 147°
2026-04-29 11:08 -23.83449 35.39301 720 ft 119 kts 144°
2026-04-29 11:08 -23.84128 35.39832 667 ft 120 kts 146°
2026-04-29 11:08 -23.84807 35.40313 451 ft 114 kts 148°
2026-04-29 11:08 -23.85412 35.40744 227 ft 97 kts 148°
2026-04-29 11:09 -23.85995 35.41173 79 ft 103 kts 146°
2026-04-29 11:09 -23.86531 35.41572 38 ft 81 kts 145°
2026-04-29 11:09 -23.86909 35.41843 35 ft 48 kts 145°
2026-04-29 11:09 -23.87133 35.42010 35 ft 23 kts 145°
2026-04-29 11:10 -23.87221 35.42032 35 ft 8 kts 158°
2026-04-29 11:10 -23.87195 35.42070 35 ft 13 kts 325°
2026-04-29 11:10 -23.87107 35.41992 35 ft 17 kts 324°
2026-04-29 11:10 -23.86967 35.41883 35 ft 25 kts 324°
2026-04-29 11:11 -23.86798 35.41753 35 ft 27 kts 320°
2026-04-29 11:11 -23.86645 35.41648 35 ft 25 kts 324°
2026-04-29 11:11 -23.86526 35.41562 35 ft 16 kts 329°
2026-04-29 11:11 -23.86502 35.41502 35 ft 9 kts 226°
2026-04-29 11:12 -23.86594 35.41392 35 ft 23 kts 225°
2026-04-29 11:12 -23.86684 35.41288 35 ft 9 kts 228°
2026-04-29 11:12 -23.86677 35.41254 35 ft 4 kts 332°
2026-04-29 11:12 -23.86667 35.41248 35 ft 2 kts 316°
2026-04-29 11:13 -23.86666 35.41247 35 ft 0 kts 316°